User: anonymous   Login
Location: Daybis Observatory
(33.4273°N, 88.8061°W)
Time: 14:38:29
(UTC-05:00)
Language:

Coronas F rocket - Orbit

View from above orbital plane
View from above orbital plane
View from above satellite
View from above satellite

Ground track
Ground track

The orbit data is extracted from the following two-line orbital elements,

1 26874U 01032B   14297.15063746  .00024575  00000-0  35929-3 0  8317
2 26874 082.4744 207.9304 0011744 307.6556 052.3632 15.55391049741322
Epoch (UTC): 24 October 2014 03:36:55
Eccentricity: 0.0011744
inclination: 82.4744°
perigee height: 393 km
apogee height: 409 km
right ascension of ascending node: 207.9304°
argument of perigee: 307.6556°
revolutions per day: 15.55391049
mean anomaly at epoch: 52.3632°
orbit number at epoch: 74132

The dashed part of the orbit path shows where the satellite is in the earth's shadow,  

DLR